N850WA KTEB-KPDK

Flight info

Callsign N850WA
Flight time 3h 3m
Altitude 28000
Route LANNA J48 MOL FLASK VIEWS DEHAN3
Aircraft TBM8/L-SDFGRWY/S

Departure

Time 2026-05-09 15:10
Airport Teterboro Airport (KTEB)

Arrival

Time 2026-05-09 18:14
Airport DeKalb Peachtree Airport (KPDK)
Time Latitude Longitude Altitude Speed Heading
2026-05-09 14:43 40.84166 -74.06569 11 ft 0 kts 30°
2026-05-09 14:58 40.84168 -74.06567 10 ft 1 kts 29°
2026-05-09 14:58 40.84180 -74.06517 10 ft 11 kts 60°
2026-05-09 14:58 40.84249 -74.06439 10 ft 15 kts 71°
2026-05-09 14:59 40.84244 -74.06312 10 ft 13 kts 92°
2026-05-09 14:59 40.84244 -74.06292 10 ft 0 kts 91°
2026-05-09 15:06 40.85163 -74.06081 11 ft 22 kts 25°
2026-05-09 15:06 40.85294 -74.05895 8 ft 33 kts 45°
2026-05-09 15:06 40.85470 -74.05642 13 ft 41 kts 48°
2026-05-09 15:06 40.85651 -74.05374 15 ft 31 kts 46°
2026-05-09 15:07 40.85686 -74.05327 15 ft 3 kts 53°
2026-05-09 15:07 40.85693 -74.05321 15 ft 2 kts 350°
2026-05-09 15:07 40.85695 -74.05329 15 ft 0 kts 233°
2026-05-09 15:08 40.85694 -74.05330 15 ft 0 kts 233°
2026-05-09 15:09 40.85697 -74.05342 15 ft 4 kts 322°
2026-05-09 15:10 40.83530 -74.10417 1652 ft 118 kts 241°
2026-05-09 15:11 40.83181 -74.11523 1791 ft 141 kts 257°
2026-05-09 15:11 40.83075 -74.12869 2025 ft 153 kts 261°
2026-05-09 15:11 40.83055 -74.14268 2498 ft 149 kts 265°
2026-05-09 15:11 40.83171 -74.15657 2841 ft 154 kts 271°
2026-05-09 15:12 40.83115 -74.17078 3114 ft 156 kts 255°
2026-05-09 15:12 40.82916 -74.18507 3403 ft 160 kts 262°
2026-05-09 15:12 40.83309 -74.19947 3543 ft 184 kts 304°
2026-05-09 15:12 40.84499 -74.20750 3788 ft 200 kts 338°
2026-05-09 15:13 40.85849 -74.21179 4088 ft 200 kts 337°
2026-05-09 15:13 40.87214 -74.21684 4257 ft 207 kts 335°
2026-05-09 15:13 40.88611 -74.22189 4596 ft 208 kts 338°
2026-05-09 15:13 40.90004 -74.22674 4953 ft 206 kts 332°
2026-05-09 15:14 40.91138 -74.23662 5376 ft 187 kts 302°
2026-05-09 15:14 40.91661 -74.25119 5820 ft 168 kts 271°
2026-05-09 15:14 40.91820 -74.26644 6182 ft 171 kts 268°
2026-05-09 15:14 40.91922 -74.28187 6625 ft 167 kts 264°
2026-05-09 15:15 40.91937 -74.29714 7048 ft 162 kts 258°
2026-05-09 15:15 40.91886 -74.30730 7240 ft 168 kts 258°
2026-05-09 15:15 40.91810 -74.32859 7654 ft 173 kts 260°
2026-05-09 15:15 40.91736 -74.34373 8275 ft 161 kts 257°
2026-05-09 15:16 40.91658 -74.35890 8527 ft 172 kts 258°
2026-05-09 15:16 40.91588 -74.37477 8907 ft 170 kts 257°
2026-05-09 15:16 40.91395 -74.38954 9455 ft 158 kts 244°
2026-05-09 15:16 40.90808 -74.40187 9637 ft 165 kts 228°
2026-05-09 15:17 40.90069 -74.41371 9978 ft 165 kts 231°
2026-05-09 15:17 40.89419 -74.42558 10476 ft 156 kts 230°
2026-05-09 15:17 40.88741 -74.43720 10679 ft 165 kts 229°
2026-05-09 15:17 40.88008 -74.44930 10901 ft 170 kts 232°
2026-05-09 15:18 40.87359 -74.46206 11341 ft 164 kts 234°
2026-05-09 15:18 40.86935 -74.47027 11571 ft 164 kts 234°
2026-05-09 15:18 40.85981 -74.48677 11831 ft 173 kts 232°
2026-05-09 15:18 40.85291 -74.49951 12150 ft 172 kts 235°
2026-05-09 15:19 40.84643 -74.51282 12524 ft 169 kts 237°
2026-05-09 15:19 40.84216 -74.52147 12709 ft 171 kts 236°
2026-05-09 15:19 40.83535 -74.53457 12930 ft 175 kts 236°
2026-05-09 15:19 40.82630 -74.55240 13322 ft 176 kts 238°
2026-05-09 15:20 40.81964 -74.56583 13742 ft 173 kts 236°
2026-05-09 15:20 40.80596 -74.59003 14621 ft 156 kts 236°
2026-05-09 15:20 40.80179 -74.59753 14922 ft 148 kts 236°
2026-05-09 15:21 40.79592 -74.60779 15425 ft 138 kts 235°
2026-05-09 15:21 40.78970 -74.61782 15671 ft 144 kts 232°
2026-05-09 15:21 40.78328 -74.62821 15921 ft 148 kts 237°
2026-05-09 15:21 40.77719 -74.63962 16083 ft 157 kts 236°
2026-05-09 15:22 40.77058 -74.65169 16224 ft 167 kts 236°
2026-05-09 15:22 40.76355 -74.66435 16366 ft 175 kts 236°
2026-05-09 15:22 40.75618 -74.67754 16509 ft 182 kts 236°
2026-05-09 15:22 40.74852 -74.69125 16620 ft 188 kts 236°
2026-05-09 15:23 40.74069 -74.70528 16804 ft 191 kts 236°
2026-05-09 15:23 40.73282 -74.71928 17065 ft 190 kts 236°
2026-05-09 15:23 40.72500 -74.73324 17333 ft 189 kts 236°
2026-05-09 15:23 40.71718 -74.74722 17600 ft 189 kts 236°
2026-05-09 15:24 40.70939 -74.76116 17868 ft 189 kts 236°
2026-05-09 15:24 40.70159 -74.77511 18137 ft 188 kts 236°
2026-05-09 15:24 40.69383 -74.78898 18384 ft 188 kts 236°
2026-05-09 15:24 40.68605 -74.80286 18618 ft 188 kts 236°
2026-05-09 15:25 40.67827 -74.81675 18849 ft 188 kts 236°
2026-05-09 15:25 40.67054 -74.83056 19086 ft 187 kts 236°
2026-05-09 15:25 40.66283 -74.84430 19323 ft 186 kts 236°
2026-05-09 15:26 40.64746 -74.87168 19811 ft 186 kts 236°
2026-05-09 15:26 40.63978 -74.88536 20051 ft 186 kts 236°
2026-05-09 15:26 40.63211 -74.89902 20298 ft 185 kts 236°
2026-05-09 15:26 40.62454 -74.91248 20543 ft 185 kts 236°
2026-05-09 15:27 40.61679 -74.92628 20681 ft 190 kts 236°
2026-05-09 15:27 40.60884 -74.94042 20811 ft 194 kts 236°
2026-05-09 15:27 40.60071 -74.95492 20944 ft 199 kts 236°
2026-05-09 15:27 40.59235 -74.96976 21076 ft 204 kts 236°
2026-05-09 15:28 40.58385 -74.98486 21207 ft 208 kts 236°
2026-05-09 15:28 40.57512 -75.00034 21317 ft 212 kts 236°
2026-05-09 15:28 40.56627 -75.01605 21448 ft 215 kts 236°
2026-05-09 15:28 40.55709 -75.03175 21582 ft 218 kts 232°
2026-05-09 15:29 40.54727 -75.04689 21715 ft 218 kts 234°
2026-05-09 15:29 40.53774 -75.06248 21863 ft 219 kts 234°
2026-05-09 15:29 40.52806 -75.07804 21998 ft 220 kts 233°
2026-05-09 15:29 40.51828 -75.09352 22132 ft 220 kts 233°
2026-05-09 15:30 40.50851 -75.10901 22265 ft 220 kts 233°
2026-05-09 15:30 40.49901 -75.12409 22399 ft 221 kts 233°
2026-05-09 15:30 40.48893 -75.14007 22550 ft 221 kts 233°
2026-05-09 15:30 40.47911 -75.15564 22694 ft 221 kts 233°
2026-05-09 15:31 40.46943 -75.17097 22821 ft 221 kts 233°
2026-05-09 15:31 40.45960 -75.18653 22957 ft 221 kts 233°
2026-05-09 15:31 40.44980 -75.20204 23094 ft 221 kts 233°
2026-05-09 15:31 40.43986 -75.21779 23231 ft 221 kts 233°
2026-05-09 15:32 40.43023 -75.23300 23368 ft 220 kts 233°
2026-05-09 15:32 40.42040 -75.24854 23531 ft 219 kts 233°
2026-05-09 15:32 40.41072 -75.26381 23721 ft 217 kts 233°
2026-05-09 15:32 40.40115 -75.27891 23873 ft 214 kts 233°
2026-05-09 15:33 40.39163 -75.29393 24056 ft 213 kts 233°
2026-05-09 15:33 40.38220 -75.30883 24236 ft 211 kts 234°
2026-05-09 15:33 40.37283 -75.32359 24424 ft 210 kts 234°
2026-05-09 15:33 40.36352 -75.33824 24611 ft 208 kts 234°
2026-05-09 15:34 40.35435 -75.35267 24799 ft 204 kts 234°
2026-05-09 15:34 40.34532 -75.36689 24988 ft 201 kts 234°
2026-05-09 15:34 40.33647 -75.38083 25175 ft 197 kts 234°
2026-05-09 15:34 40.32776 -75.39453 25367 ft 194 kts 234°
2026-05-09 15:35 40.31918 -75.40802 25553 ft 191 kts 234°
2026-05-09 15:35 40.31075 -75.42124 25745 ft 187 kts 234°
2026-05-09 15:35 40.30250 -75.43423 25969 ft 183 kts 234°
2026-05-09 15:35 40.29442 -75.44691 26167 ft 180 kts 234°
2026-05-09 15:36 40.28647 -75.45938 26363 ft 176 kts 234°
2026-05-09 15:36 40.27879 -75.47143 26558 ft 172 kts 234°
2026-05-09 15:36 40.27151 -75.48287 26748 ft 171 kts 234°
2026-05-09 15:36 40.26392 -75.49476 26946 ft 170 kts 234°
2026-05-09 15:37 40.25628 -75.50676 27076 ft 173 kts 234°
2026-05-09 15:37 40.24854 -75.51892 27207 ft 175 kts 234°
2026-05-09 15:37 40.24070 -75.53121 27341 ft 177 kts 234°
2026-05-09 15:37 40.23274 -75.54367 27476 ft 179 kts 234°
2026-05-09 15:38 40.22469 -75.55625 27612 ft 181 kts 234°
2026-05-09 15:38 40.21749 -75.56971 27723 ft 181 kts 240°
2026-05-09 15:38 40.21056 -75.58359 27861 ft 183 kts 239°
2026-05-09 15:38 40.20346 -75.59757 27976 ft 186 kts 239°
2026-05-09 15:39 40.19622 -75.61198 27980 ft 193 kts 239°
2026-05-09 15:39 40.18874 -75.62691 27990 ft 199 kts 239°
2026-05-09 15:39 40.18112 -75.64210 27988 ft 205 kts 239°
2026-05-09 15:39 40.17318 -75.65789 27988 ft 211 kts 239°
2026-05-09 15:40 40.16534 -75.67348 27986 ft 216 kts 239°
2026-05-09 15:40 40.15700 -75.69005 27988 ft 220 kts 239°
2026-05-09 15:40 40.14851 -75.70692 27984 ft 224 kts 239°
2026-05-09 15:40 40.13987 -75.72408 27985 ft 228 kts 239°
2026-05-09 15:41 40.13113 -75.74145 27981 ft 230 kts 239°
2026-05-09 15:41 40.12224 -75.75904 27981 ft 233 kts 239°
2026-05-09 15:41 40.11329 -75.77680 27978 ft 236 kts 239°
2026-05-09 15:41 40.10422 -75.79478 27976 ft 238 kts 239°
2026-05-09 15:42 40.09507 -75.81290 27976 ft 240 kts 239°
2026-05-09 15:42 40.08587 -75.83114 27974 ft 241 kts 238°
2026-05-09 15:42 40.07659 -75.84945 27980 ft 242 kts 238°
2026-05-09 15:42 40.06726 -75.86786 27979 ft 243 kts 238°
2026-05-09 15:43 40.05791 -75.88634 27980 ft 244 kts 238°
2026-05-09 15:43 40.04853 -75.90484 27981 ft 245 kts 238°
2026-05-09 15:43 40.03911 -75.92341 27965 ft 246 kts 238°
2026-05-09 15:43 40.02964 -75.94205 27944 ft 247 kts 238°
2026-05-09 15:44 40.02015 -75.96079 27946 ft 248 kts 238°
2026-05-09 15:44 40.01059 -75.97961 27946 ft 249 kts 238°
2026-05-09 15:44 40.00101 -75.99846 27946 ft 250 kts 238°
2026-05-09 15:44 39.99138 -76.01740 27947 ft 251 kts 238°
2026-05-09 15:45 39.98174 -76.03635 27950 ft 251 kts 238°
2026-05-09 15:45 39.97207 -76.05533 27951 ft 252 kts 238°
2026-05-09 15:45 39.96236 -76.07437 27946 ft 252 kts 238°
2026-05-09 15:45 39.95284 -76.09307 27946 ft 252 kts 238°
2026-05-09 15:46 39.94293 -76.11248 27946 ft 253 kts 238°
2026-05-09 15:46 39.93331 -76.13132 27947 ft 253 kts 238°
2026-05-09 15:46 39.92356 -76.15043 27957 ft 254 kts 238°
2026-05-09 15:46 39.91379 -76.16957 27956 ft 254 kts 238°
2026-05-09 15:47 39.90400 -76.18872 27959 ft 254 kts 238°
2026-05-09 15:47 39.89420 -76.20786 27959 ft 254 kts 238°
2026-05-09 15:47 39.88440 -76.22701 27957 ft 254 kts 238°
2026-05-09 15:47 39.87460 -76.24612 27957 ft 254 kts 238°
2026-05-09 15:48 39.86479 -76.26528 27958 ft 254 kts 238°
2026-05-09 15:48 39.85498 -76.28441 27958 ft 254 kts 238°
2026-05-09 15:48 39.84514 -76.30358 27957 ft 255 kts 238°
2026-05-09 15:48 39.83531 -76.32273 27958 ft 255 kts 238°
2026-05-09 15:49 39.82545 -76.34191 27959 ft 255 kts 238°
2026-05-09 15:49 39.81555 -76.36118 27956 ft 256 kts 238°
2026-05-09 15:49 39.80567 -76.38039 27957 ft 256 kts 238°
2026-05-09 15:49 39.79579 -76.39958 27956 ft 256 kts 238°
2026-05-09 15:50 39.78586 -76.41886 27957 ft 256 kts 238°
2026-05-09 15:50 39.77596 -76.43807 27956 ft 256 kts 238°
2026-05-09 15:50 39.76605 -76.45728 27959 ft 256 kts 238°
2026-05-09 15:50 39.75615 -76.47646 27959 ft 255 kts 237°
2026-05-09 15:51 39.74625 -76.49564 27962 ft 255 kts 237°
2026-05-09 15:51 39.73634 -76.51482 27956 ft 256 kts 237°
2026-05-09 15:51 39.72642 -76.53400 27957 ft 256 kts 237°
2026-05-09 15:51 39.71649 -76.55322 27958 ft 256 kts 237°
2026-05-09 15:52 39.69660 -76.59161 27958 ft 256 kts 237°
2026-05-09 15:52 39.68667 -76.61079 27950 ft 256 kts 237°
2026-05-09 15:52 39.67672 -76.62997 27951 ft 256 kts 237°
2026-05-09 15:53 39.66675 -76.64920 27951 ft 257 kts 237°
2026-05-09 15:53 39.65676 -76.66847 27952 ft 258 kts 237°
2026-05-09 15:53 39.64686 -76.68749 27951 ft 258 kts 237°
2026-05-09 15:53 39.63684 -76.70678 27950 ft 258 kts 237°
2026-05-09 15:54 39.62680 -76.72609 27956 ft 258 kts 237°
2026-05-09 15:54 39.61676 -76.74538 27959 ft 258 kts 237°
2026-05-09 15:54 39.60658 -76.76496 27960 ft 259 kts 237°
2026-05-09 15:54 39.59662 -76.78407 27960 ft 259 kts 237°
2026-05-09 15:55 39.58650 -76.80347 27956 ft 260 kts 237°
2026-05-09 15:55 39.57640 -76.82284 27956 ft 259 kts 237°
2026-05-09 15:55 39.56616 -76.84243 27958 ft 260 kts 237°
2026-05-09 15:55 39.55615 -76.86163 27958 ft 260 kts 237°
2026-05-09 15:56 39.54600 -76.88103 27961 ft 260 kts 237°
2026-05-09 15:56 39.53584 -76.90047 27962 ft 261 kts 237°
2026-05-09 15:56 39.52564 -76.91996 27959 ft 261 kts 237°
2026-05-09 15:56 39.51548 -76.93938 27960 ft 260 kts 237°
2026-05-09 15:57 39.50533 -76.95871 27949 ft 259 kts 237°
2026-05-09 15:57 39.49487 -76.97783 27950 ft 262 kts 232°
2026-05-09 15:57 39.48104 -76.99333 27962 ft 265 kts 223°
2026-05-09 15:57 39.46783 -77.00694 27963 ft 264 kts 223°
2026-05-09 15:58 39.45369 -77.02193 27955 ft 264 kts 224°
2026-05-09 15:58 39.43952 -77.03695 27959 ft 263 kts 224°
2026-05-09 15:58 39.42542 -77.05180 27964 ft 263 kts 224°
2026-05-09 15:58 39.41115 -77.06678 27967 ft 263 kts 223°
2026-05-09 15:59 39.39699 -77.08169 27963 ft 262 kts 224°
2026-05-09 15:59 39.38282 -77.09659 27975 ft 262 kts 224°
2026-05-09 15:59 39.36870 -77.11144 27971 ft 262 kts 224°
2026-05-09 15:59 39.35459 -77.12625 27965 ft 261 kts 224°
2026-05-09 16:00 39.34076 -77.14077 27966 ft 261 kts 224°
2026-05-09 16:00 39.33571 -77.14606 27966 ft 261 kts 224°
2026-05-09 16:00 39.31230 -77.17063 27956 ft 260 kts 224°
2026-05-09 16:00 39.29826 -77.18534 27954 ft 260 kts 224°
2026-05-09 16:01 39.28421 -77.20006 27961 ft 260 kts 224°
2026-05-09 16:01 39.27017 -77.21476 27962 ft 260 kts 224°
2026-05-09 16:01 39.25628 -77.22929 27981 ft 260 kts 224°
2026-05-09 16:01 39.24221 -77.24399 27961 ft 261 kts 224°
2026-05-09 16:02 39.22812 -77.25873 27961 ft 261 kts 224°
2026-05-09 16:02 39.19996 -77.28815 27958 ft 261 kts 224°
2026-05-09 16:02 39.18583 -77.30288 27961 ft 261 kts 224°
2026-05-09 16:03 39.17175 -77.31759 27957 ft 261 kts 224°
2026-05-09 16:03 39.15764 -77.33230 27955 ft 261 kts 224°
2026-05-09 16:03 39.14352 -77.34700 27958 ft 261 kts 224°
2026-05-09 16:03 39.12941 -77.36170 27959 ft 261 kts 224°
2026-05-09 16:04 39.11527 -77.37642 27916 ft 261 kts 224°
2026-05-09 16:04 39.10115 -77.39110 27944 ft 261 kts 224°
2026-05-09 16:04 39.08704 -77.40576 27944 ft 261 kts 224°
2026-05-09 16:04 39.07770 -77.41548 27945 ft 261 kts 224°
2026-05-09 16:05 39.05896 -77.43495 27944 ft 261 kts 224°
2026-05-09 16:05 39.04950 -77.44477 27945 ft 261 kts 224°
2026-05-09 16:05 39.03060 -77.46438 27916 ft 261 kts 224°
2026-05-09 16:05 39.01645 -77.47905 27916 ft 261 kts 224°
2026-05-09 16:06 39.00236 -77.49365 27917 ft 261 kts 224°
2026-05-09 16:06 38.99300 -77.50335 27916 ft 261 kts 224°
2026-05-09 16:06 38.97411 -77.52290 27916 ft 261 kts 224°
2026-05-09 16:06 38.96474 -77.53261 27916 ft 261 kts 224°
2026-05-09 16:07 38.94581 -77.55220 27916 ft 261 kts 224°
2026-05-09 16:07 38.93186 -77.56660 27915 ft 261 kts 224°
2026-05-09 16:07 38.91773 -77.58120 27916 ft 261 kts 224°
2026-05-09 16:07 38.90816 -77.59110 27920 ft 260 kts 224°
2026-05-09 16:08 38.88944 -77.61040 27935 ft 260 kts 226°
2026-05-09 16:08 38.88041 -77.61973 27936 ft 260 kts 226°
2026-05-09 16:08 38.86627 -77.63431 27937 ft 261 kts 226°
2026-05-09 16:08 38.85212 -77.64889 27937 ft 261 kts 225°
2026-05-09 16:09 38.83791 -77.66353 27940 ft 261 kts 226°
2026-05-09 16:09 38.82371 -77.67816 27938 ft 262 kts 225°
2026-05-09 16:09 38.80956 -77.69271 27938 ft 262 kts 225°
2026-05-09 16:09 38.79529 -77.70739 27937 ft 262 kts 225°
2026-05-09 16:10 38.78115 -77.72192 27937 ft 262 kts 225°
2026-05-09 16:10 38.76688 -77.73658 27937 ft 262 kts 225°
2026-05-09 16:10 38.75265 -77.75119 27937 ft 262 kts 225°
2026-05-09 16:10 38.73841 -77.76581 27939 ft 262 kts 225°
2026-05-09 16:11 38.72416 -77.78041 27941 ft 262 kts 225°
2026-05-09 16:11 38.70991 -77.79503 27909 ft 262 kts 226°
2026-05-09 16:11 38.69571 -77.80957 27930 ft 261 kts 226°
2026-05-09 16:11 38.68150 -77.82413 27930 ft 261 kts 226°
2026-05-09 16:12 38.66751 -77.83846 27929 ft 261 kts 226°
2026-05-09 16:12 38.65332 -77.85295 27927 ft 261 kts 226°
2026-05-09 16:12 38.63961 -77.86799 27922 ft 255 kts 234°
2026-05-09 16:12 38.62905 -77.88596 27926 ft 252 kts 239°
2026-05-09 16:13 38.61861 -77.90404 27930 ft 253 kts 238°
2026-05-09 16:13 38.60802 -77.92199 27928 ft 253 kts 238°
2026-05-09 16:13 38.59745 -77.93996 27929 ft 253 kts 238°
2026-05-09 16:13 38.58690 -77.95794 27946 ft 252 kts 238°
2026-05-09 16:14 38.57637 -77.97588 27941 ft 252 kts 239°
2026-05-09 16:14 38.56585 -77.99381 27944 ft 252 kts 239°
2026-05-09 16:14 38.55530 -78.01176 27943 ft 253 kts 239°
2026-05-09 16:14 38.54486 -78.02950 27940 ft 253 kts 239°
2026-05-09 16:15 38.53412 -78.04775 27940 ft 253 kts 239°
2026-05-09 16:15 38.52353 -78.06573 27937 ft 253 kts 239°
2026-05-09 16:15 38.51297 -78.08365 27922 ft 253 kts 239°
2026-05-09 16:15 38.50241 -78.10154 27927 ft 251 kts 239°
2026-05-09 16:16 38.49203 -78.11917 27919 ft 251 kts 239°
2026-05-09 16:16 38.48159 -78.13684 27919 ft 250 kts 239°
2026-05-09 16:16 38.47107 -78.15467 27920 ft 250 kts 239°
2026-05-09 16:16 38.46061 -78.17237 27920 ft 250 kts 239°
2026-05-09 16:17 38.45014 -78.19009 27924 ft 250 kts 239°
2026-05-09 16:17 38.43968 -78.20778 27922 ft 249 kts 239°
2026-05-09 16:17 38.42923 -78.22544 27922 ft 249 kts 239°
2026-05-09 16:17 38.41878 -78.24308 27922 ft 249 kts 239°
2026-05-09 16:18 38.40837 -78.26066 27917 ft 249 kts 239°
2026-05-09 16:18 38.39790 -78.27832 27916 ft 249 kts 239°
2026-05-09 16:18 38.38755 -78.29578 27915 ft 248 kts 239°
2026-05-09 16:18 38.37706 -78.31346 27914 ft 248 kts 239°
2026-05-09 16:19 38.36665 -78.33101 27909 ft 248 kts 239°
2026-05-09 16:19 38.35633 -78.34838 27914 ft 249 kts 239°
2026-05-09 16:19 38.34589 -78.36594 27915 ft 249 kts 239°
2026-05-09 16:19 38.33546 -78.38349 27918 ft 248 kts 239°
2026-05-09 16:20 38.32501 -78.40105 27915 ft 249 kts 239°
2026-05-09 16:20 38.31457 -78.41857 27884 ft 248 kts 240°
2026-05-09 16:20 38.30418 -78.43601 27916 ft 246 kts 240°
2026-05-09 16:20 38.29383 -78.45341 27916 ft 246 kts 240°
2026-05-09 16:21 38.28349 -78.47076 27914 ft 246 kts 240°
2026-05-09 16:21 38.27322 -78.48798 27915 ft 246 kts 240°
2026-05-09 16:21 38.26281 -78.50541 27916 ft 246 kts 240°
2026-05-09 16:21 38.25251 -78.52272 27916 ft 246 kts 240°
2026-05-09 16:22 38.24219 -78.54012 27915 ft 246 kts 240°
2026-05-09 16:22 38.23178 -78.55745 27916 ft 246 kts 240°
2026-05-09 16:22 38.22138 -78.57474 27915 ft 246 kts 240°
2026-05-09 16:22 38.21114 -78.59189 27914 ft 245 kts 240°
2026-05-09 16:23 38.20093 -78.60895 27916 ft 245 kts 240°
2026-05-09 16:23 38.19054 -78.62629 27915 ft 245 kts 240°
2026-05-09 16:23 38.18025 -78.64348 27914 ft 244 kts 240°
2026-05-09 16:23 38.17002 -78.66054 27917 ft 243 kts 240°
2026-05-09 16:24 38.15970 -78.67778 27923 ft 244 kts 240°
2026-05-09 16:24 38.14943 -78.69487 27920 ft 243 kts 241°
2026-05-09 16:24 38.13918 -78.71187 27917 ft 243 kts 242°
2026-05-09 16:24 38.12890 -78.72899 27918 ft 243 kts 241°
2026-05-09 16:25 38.11866 -78.74605 27915 ft 243 kts 241°
2026-05-09 16:25 38.10841 -78.76307 27920 ft 242 kts 242°
2026-05-09 16:25 38.09870 -78.77924 27922 ft 243 kts 242°
2026-05-09 16:25 38.08843 -78.79630 27922 ft 244 kts 242°
2026-05-09 16:26 38.07827 -78.81316 27922 ft 244 kts 242°
2026-05-09 16:26 38.06777 -78.83056 27922 ft 245 kts 242°
2026-05-09 16:26 38.05743 -78.84772 27921 ft 245 kts 242°
2026-05-09 16:26 38.04707 -78.86488 27921 ft 245 kts 242°
2026-05-09 16:27 38.03687 -78.88176 27920 ft 245 kts 242°
2026-05-09 16:27 38.02653 -78.89892 27919 ft 245 kts 242°
2026-05-09 16:27 38.01615 -78.91609 27918 ft 245 kts 241°
2026-05-09 16:27 38.00576 -78.93324 27918 ft 245 kts 242°
2026-05-09 16:28 37.99537 -78.95041 27917 ft 246 kts 242°
2026-05-09 16:28 37.98499 -78.96759 27914 ft 245 kts 241°
2026-05-09 16:28 37.97459 -78.98474 27915 ft 245 kts 242°
2026-05-09 16:28 37.96421 -79.00185 27912 ft 245 kts 241°
2026-05-09 16:29 37.95386 -79.01892 27916 ft 244 kts 242°
2026-05-09 16:29 37.94350 -79.03605 27916 ft 245 kts 242°
2026-05-09 16:29 37.93307 -79.05323 27932 ft 246 kts 241°
2026-05-09 16:29 37.92263 -79.07039 27946 ft 246 kts 242°
2026-05-09 16:30 37.91222 -79.08754 27966 ft 246 kts 242°
2026-05-09 16:30 37.90185 -79.10458 27982 ft 247 kts 242°
2026-05-09 16:30 37.89023 -79.12091 27998 ft 250 kts 237°
2026-05-09 16:30 37.87858 -79.13717 28016 ft 249 kts 238°
2026-05-09 16:31 37.86708 -79.15345 28037 ft 249 kts 238°
2026-05-09 16:31 37.85538 -79.16979 28052 ft 250 kts 238°
2026-05-09 16:31 37.84368 -79.18606 28067 ft 250 kts 238°
2026-05-09 16:31 37.83197 -79.20234 28082 ft 250 kts 238°
2026-05-09 16:32 37.82025 -79.21869 28091 ft 251 kts 238°
2026-05-09 16:32 37.81231 -79.22970 28099 ft 250 kts 238°
2026-05-09 16:32 37.79682 -79.25120 28113 ft 250 kts 238°
2026-05-09 16:32 37.78514 -79.26747 28121 ft 250 kts 238°
2026-05-09 16:33 37.77349 -79.28362 28133 ft 249 kts 238°
2026-05-09 16:33 37.76179 -79.29991 28134 ft 250 kts 238°
2026-05-09 16:33 37.75009 -79.31612 28137 ft 249 kts 238°
2026-05-09 16:33 37.73838 -79.33233 28143 ft 250 kts 238°
2026-05-09 16:34 37.72667 -79.34861 28143 ft 251 kts 238°
2026-05-09 16:34 37.71493 -79.36486 28140 ft 251 kts 238°
2026-05-09 16:34 37.70318 -79.38111 28133 ft 250 kts 238°
2026-05-09 16:34 37.69168 -79.39703 28121 ft 250 kts 238°
2026-05-09 16:35 37.67977 -79.41349 28115 ft 250 kts 238°
2026-05-09 16:35 37.66806 -79.42969 28106 ft 250 kts 238°
2026-05-09 16:35 37.65631 -79.44595 28095 ft 251 kts 238°
2026-05-09 16:35 37.64455 -79.46219 28084 ft 250 kts 238°
2026-05-09 16:36 37.63279 -79.47839 28069 ft 250 kts 238°
2026-05-09 16:36 37.59781 -79.52663 28032 ft 250 kts 238°
2026-05-09 16:37 37.58608 -79.54283 28017 ft 250 kts 238°
2026-05-09 16:37 37.57431 -79.55901 28005 ft 250 kts 238°
2026-05-09 16:37 37.56256 -79.57518 27985 ft 250 kts 238°
2026-05-09 16:37 37.55081 -79.59134 27966 ft 249 kts 238°
2026-05-09 16:38 37.53914 -79.60735 27955 ft 248 kts 238°
2026-05-09 16:38 37.52746 -79.62342 27943 ft 249 kts 238°
2026-05-09 16:38 37.51580 -79.63946 27932 ft 249 kts 239°
2026-05-09 16:38 37.50415 -79.65544 27924 ft 249 kts 238°
2026-05-09 16:39 37.49237 -79.67156 27924 ft 248 kts 238°
2026-05-09 16:39 37.48070 -79.68762 27930 ft 249 kts 238°
2026-05-09 16:39 37.46896 -79.70374 27932 ft 250 kts 238°
2026-05-09 16:39 37.45715 -79.71989 27932 ft 251 kts 238°
2026-05-09 16:40 37.44543 -79.73594 27932 ft 251 kts 238°
2026-05-09 16:40 37.43356 -79.75219 27933 ft 251 kts 238°
2026-05-09 16:42 37.35113 -79.86478 27934 ft 249 kts 238°
2026-05-09 16:42 37.33962 -79.88047 27935 ft 248 kts 238°
2026-05-09 16:42 37.32785 -79.89650 27935 ft 248 kts 238°
2026-05-09 16:42 37.31613 -79.91245 27934 ft 248 kts 238°
2026-05-09 16:43 37.30443 -79.92838 27934 ft 248 kts 238°
2026-05-09 16:43 37.29277 -79.94426 27934 ft 248 kts 238°
2026-05-09 16:43 37.28102 -79.96023 27934 ft 247 kts 238°
2026-05-09 16:43 37.26933 -79.97608 27938 ft 247 kts 238°
2026-05-09 16:44 37.25770 -79.99191 27928 ft 247 kts 238°
2026-05-09 16:44 37.24603 -80.00778 27932 ft 247 kts 238°
2026-05-09 16:44 37.23436 -80.02361 27933 ft 247 kts 238°
2026-05-09 16:44 37.22266 -80.03948 27934 ft 247 kts 238°
2026-05-09 16:45 37.21477 -80.05018 27931 ft 248 kts 238°
2026-05-09 16:45 37.19927 -80.07117 27942 ft 248 kts 238°
2026-05-09 16:45 37.18757 -80.08703 27942 ft 248 kts 238°
2026-05-09 16:45 37.17585 -80.10290 27945 ft 248 kts 238°
2026-05-09 16:46 37.16413 -80.11876 27948 ft 248 kts 238°
2026-05-09 16:46 37.15241 -80.13461 27949 ft 248 kts 238°
2026-05-09 16:46 37.14240 -80.14816 27954 ft 248 kts 238°
2026-05-09 16:46 37.13065 -80.16402 27953 ft 248 kts 238°
2026-05-09 16:47 37.11889 -80.17988 27957 ft 248 kts 238°
2026-05-09 16:47 37.10716 -80.19577 27954 ft 249 kts 238°
2026-05-09 16:47 37.09537 -80.21165 27955 ft 249 kts 238°
2026-05-09 16:47 37.08358 -80.22753 27959 ft 249 kts 238°
2026-05-09 16:48 37.07182 -80.24344 27924 ft 248 kts 238°
2026-05-09 16:48 37.06010 -80.25915 27959 ft 247 kts 238°
2026-05-09 16:48 37.04859 -80.27465 27959 ft 247 kts 239°
2026-05-09 16:48 37.03676 -80.29065 27957 ft 247 kts 238°
2026-05-09 16:49 37.02504 -80.30641 27958 ft 247 kts 238°
2026-05-09 16:49 37.01368 -80.32246 27951 ft 244 kts 242°
2026-05-09 16:49 37.00321 -80.33877 27950 ft 246 kts 241°
2026-05-09 16:50 36.98141 -80.37144 27947 ft 246 kts 241°
2026-05-09 16:50 36.97058 -80.38797 27945 ft 246 kts 241°
2026-05-09 16:50 36.95971 -80.40450 27942 ft 246 kts 241°
2026-05-09 16:50 36.94886 -80.42099 27940 ft 246 kts 241°
2026-05-09 16:51 36.93800 -80.43749 27935 ft 246 kts 241°
2026-05-09 16:51 36.92713 -80.45398 27932 ft 246 kts 241°
2026-05-09 16:51 36.91623 -80.47050 27927 ft 246 kts 241°
2026-05-09 16:51 36.90532 -80.48705 27922 ft 246 kts 241°
2026-05-09 16:52 36.89445 -80.50351 27920 ft 246 kts 241°
2026-05-09 16:52 36.88357 -80.52000 27918 ft 246 kts 241°
2026-05-09 16:52 36.87271 -80.53647 27913 ft 246 kts 241°
2026-05-09 16:52 36.86181 -80.55295 27911 ft 246 kts 241°
2026-05-09 16:53 36.85100 -80.56930 27908 ft 246 kts 240°
2026-05-09 16:53 36.84002 -80.58590 27907 ft 246 kts 240°
2026-05-09 16:53 36.82914 -80.60233 27907 ft 246 kts 240°
2026-05-09 16:53 36.81827 -80.61875 27902 ft 246 kts 240°
2026-05-09 16:54 36.80738 -80.63519 27948 ft 246 kts 240°
2026-05-09 16:54 36.79652 -80.65158 27952 ft 245 kts 240°
2026-05-09 16:54 36.78567 -80.66794 27954 ft 245 kts 240°
2026-05-09 16:54 36.77514 -80.68382 27957 ft 245 kts 240°
2026-05-09 16:55 36.76412 -80.70040 27961 ft 245 kts 240°
2026-05-09 16:55 36.75328 -80.71677 27962 ft 245 kts 240°
2026-05-09 16:55 36.74240 -80.73311 27962 ft 245 kts 240°
2026-05-09 16:55 36.73160 -80.74935 27962 ft 244 kts 240°
2026-05-09 16:56 36.72071 -80.76575 27963 ft 244 kts 240°
2026-05-09 16:56 36.70987 -80.78206 27964 ft 244 kts 240°
2026-05-09 16:56 36.69902 -80.79834 27964 ft 244 kts 240°
2026-05-09 16:56 36.68817 -80.81463 27965 ft 245 kts 240°
2026-05-09 16:57 36.67731 -80.83095 27964 ft 245 kts 240°
2026-05-09 16:57 36.66650 -80.84712 27959 ft 244 kts 240°
2026-05-09 16:57 36.65560 -80.86347 27958 ft 244 kts 240°
2026-05-09 16:57 36.64478 -80.87971 27955 ft 244 kts 240°
2026-05-09 16:58 36.63760 -80.89046 27946 ft 243 kts 240°
2026-05-09 16:58 36.62681 -80.90658 27949 ft 242 kts 240°
2026-05-09 16:58 36.61607 -80.92269 27948 ft 242 kts 239°
2026-05-09 16:58 36.60179 -80.94405 27944 ft 242 kts 239°
2026-05-09 16:59 36.59450 -80.95496 27943 ft 242 kts 239°
2026-05-09 16:59 36.58021 -80.97630 27939 ft 242 kts 239°
2026-05-09 16:59 36.56943 -80.99240 27935 ft 242 kts 240°
2026-05-09 16:59 36.56214 -81.00328 27920 ft 242 kts 239°
2026-05-09 17:00 36.55136 -81.01940 27926 ft 243 kts 239°
2026-05-09 17:00 36.54054 -81.03553 27931 ft 243 kts 239°
2026-05-09 17:00 36.52973 -81.05164 27933 ft 243 kts 240°
2026-05-09 17:00 36.51886 -81.06784 27932 ft 243 kts 239°
2026-05-09 17:01 36.50801 -81.08401 27938 ft 244 kts 239°
2026-05-09 17:01 36.49715 -81.10016 27942 ft 243 kts 239°
2026-05-09 17:01 36.48631 -81.11628 27945 ft 243 kts 239°
2026-05-09 17:01 36.47546 -81.13242 27949 ft 243 kts 239°
2026-05-09 17:02 36.46461 -81.14856 27952 ft 243 kts 240°
2026-05-09 17:02 36.45374 -81.16471 27955 ft 244 kts 240°
2026-05-09 17:02 36.44340 -81.18011 27961 ft 244 kts 240°
2026-05-09 17:02 36.43249 -81.19629 27964 ft 245 kts 239°
2026-05-09 17:03 36.42170 -81.21229 27938 ft 245 kts 240°
2026-05-09 17:04 36.34536 -81.32532 27977 ft 245 kts 240°
2026-05-09 17:05 36.33445 -81.34146 27986 ft 244 kts 239°
2026-05-09 17:05 36.32353 -81.35761 27983 ft 244 kts 240°
2026-05-09 17:05 36.31264 -81.37372 27982 ft 243 kts 240°
2026-05-09 17:05 36.30172 -81.38980 27981 ft 244 kts 239°
2026-05-09 17:06 36.29078 -81.40590 27978 ft 244 kts 239°
2026-05-09 17:06 36.27994 -81.42190 27974 ft 244 kts 239°
2026-05-09 17:06 36.26893 -81.43812 27970 ft 243 kts 239°
2026-05-09 17:06 36.25827 -81.45383 27966 ft 242 kts 239°
2026-05-09 17:07 36.24727 -81.47004 27961 ft 241 kts 240°
2026-05-09 17:07 36.24012 -81.48053 27958 ft 240 kts 240°
2026-05-09 17:07 36.22583 -81.50159 27950 ft 239 kts 240°
2026-05-09 17:07 36.21509 -81.51734 27948 ft 237 kts 240°
2026-05-09 17:08 36.20459 -81.53280 27941 ft 236 kts 240°
2026-05-09 17:08 36.18347 -81.56384 27906 ft 233 kts 240°
2026-05-09 17:08 36.17302 -81.57916 27908 ft 232 kts 240°
2026-05-09 17:09 36.16262 -81.59444 27915 ft 233 kts 240°
2026-05-09 17:09 36.15215 -81.60984 27908 ft 234 kts 240°
2026-05-09 17:09 36.14181 -81.62499 27913 ft 235 kts 240°
2026-05-09 17:09 36.13119 -81.64055 27910 ft 237 kts 240°
2026-05-09 17:10 36.12054 -81.65609 27908 ft 235 kts 240°
2026-05-09 17:10 36.11001 -81.67147 27920 ft 234 kts 240°
2026-05-09 17:10 36.09948 -81.68695 27914 ft 235 kts 240°
2026-05-09 17:10 36.08902 -81.70224 27912 ft 234 kts 239°
2026-05-09 17:11 36.07849 -81.71760 27914 ft 233 kts 240°
2026-05-09 17:11 36.06805 -81.73287 27921 ft 235 kts 240°
2026-05-09 17:11 36.05740 -81.74846 27913 ft 237 kts 240°
2026-05-09 17:11 36.04674 -81.76402 27916 ft 237 kts 240°
2026-05-09 17:12 36.03610 -81.77951 27914 ft 236 kts 240°
2026-05-09 17:12 36.02548 -81.79498 27917 ft 236 kts 240°
2026-05-09 17:12 36.01535 -81.80975 27914 ft 236 kts 240°
2026-05-09 17:12 36.00476 -81.82518 27915 ft 235 kts 240°
2026-05-09 17:13 35.99420 -81.84056 27914 ft 235 kts 239°
2026-05-09 17:13 35.98360 -81.85600 27913 ft 235 kts 239°
2026-05-09 17:13 35.97325 -81.87102 27885 ft 231 kts 240°
2026-05-09 17:13 35.96300 -81.88583 27909 ft 224 kts 241°
2026-05-09 17:14 35.95298 -81.90055 27908 ft 223 kts 240°
2026-05-09 17:14 35.94289 -81.91526 27915 ft 226 kts 240°
2026-05-09 17:14 35.93268 -81.93007 27910 ft 227 kts 240°
2026-05-09 17:14 35.92242 -81.94495 27913 ft 229 kts 240°
2026-05-09 17:15 35.91207 -81.96001 27919 ft 230 kts 240°
2026-05-09 17:15 35.90167 -81.97504 27923 ft 231 kts 240°
2026-05-09 17:15 35.89127 -81.99016 27922 ft 232 kts 240°
2026-05-09 17:15 35.88074 -82.00541 27924 ft 234 kts 240°
2026-05-09 17:16 35.87018 -82.02073 27920 ft 235 kts 241°
2026-05-09 17:17 35.79594 -82.12807 27916 ft 237 kts 240°
2026-05-09 17:18 35.78527 -82.14347 27914 ft 236 kts 240°
2026-05-09 17:18 35.77463 -82.15879 27913 ft 234 kts 240°
2026-05-09 17:18 35.76402 -82.17403 27918 ft 235 kts 240°
2026-05-09 17:18 35.75347 -82.18931 27918 ft 236 kts 240°
2026-05-09 17:19 35.74277 -82.20477 27915 ft 237 kts 240°
2026-05-09 17:19 35.73204 -82.22022 27915 ft 238 kts 240°
2026-05-09 17:19 35.72127 -82.23571 27918 ft 239 kts 240°
2026-05-09 17:19 35.71043 -82.25133 27917 ft 240 kts 240°
2026-05-09 17:20 35.69956 -82.26695 27914 ft 240 kts 240°
2026-05-09 17:20 35.68875 -82.28240 27912 ft 238 kts 240°
2026-05-09 17:20 35.67802 -82.29776 27911 ft 232 kts 240°
2026-05-09 17:20 35.66751 -82.31285 27920 ft 232 kts 240°
2026-05-09 17:21 35.65701 -82.32807 27917 ft 234 kts 240°
2026-05-09 17:21 35.64661 -82.34309 27912 ft 236 kts 240°
2026-05-09 17:21 35.63578 -82.35857 27915 ft 237 kts 240°
2026-05-09 17:21 35.62507 -82.37387 27912 ft 238 kts 240°
2026-05-09 17:22 35.61426 -82.38936 27915 ft 237 kts 240°
2026-05-09 17:22 35.60350 -82.40479 27915 ft 238 kts 240°
2026-05-09 17:22 35.59268 -82.42028 27915 ft 239 kts 240°
2026-05-09 17:22 35.58193 -82.43577 27912 ft 239 kts 240°
2026-05-09 17:23 35.57107 -82.45137 27911 ft 239 kts 240°
2026-05-09 17:23 35.56025 -82.46693 27909 ft 240 kts 240°
2026-05-09 17:23 35.54939 -82.48252 27912 ft 241 kts 240°
2026-05-09 17:23 35.53850 -82.49814 27913 ft 241 kts 240°
2026-05-09 17:25 35.48381 -82.57655 27954 ft 242 kts 240°
2026-05-09 17:25 35.47285 -82.59224 27955 ft 242 kts 240°
2026-05-09 17:25 35.46186 -82.60797 27956 ft 243 kts 240°
2026-05-09 17:25 35.45083 -82.62375 27955 ft 243 kts 240°
2026-05-09 17:26 35.43982 -82.63945 27957 ft 243 kts 240°
2026-05-09 17:26 35.42878 -82.65523 27958 ft 243 kts 240°
2026-05-09 17:26 35.41795 -82.67070 27954 ft 242 kts 240°
2026-05-09 17:26 35.40701 -82.68633 27953 ft 242 kts 240°
2026-05-09 17:27 35.39598 -82.70210 27953 ft 243 kts 240°
2026-05-09 17:27 35.38499 -82.71774 27951 ft 244 kts 240°
2026-05-09 17:27 35.37390 -82.73356 27948 ft 244 kts 240°
2026-05-09 17:27 35.36283 -82.74937 27945 ft 244 kts 240°
2026-05-09 17:28 35.35171 -82.76518 27944 ft 245 kts 240°
2026-05-09 17:28 35.34060 -82.78098 27940 ft 245 kts 240°
2026-05-09 17:28 35.32945 -82.79687 27935 ft 246 kts 239°
2026-05-09 17:28 35.31830 -82.81267 27932 ft 244 kts 239°
2026-05-09 17:29 35.30730 -82.82832 27929 ft 240 kts 239°
2026-05-09 17:29 35.29642 -82.84378 27940 ft 239 kts 240°
2026-05-09 17:29 35.28572 -82.85901 27930 ft 238 kts 240°
2026-05-09 17:29 35.27485 -82.87443 27931 ft 241 kts 240°
2026-05-09 17:30 35.26386 -82.89007 27928 ft 242 kts 240°
2026-05-09 17:30 35.25281 -82.90571 27924 ft 243 kts 240°
2026-05-09 17:30 35.24175 -82.92140 27928 ft 244 kts 240°
2026-05-09 17:30 35.23065 -82.93716 27930 ft 245 kts 240°
2026-05-09 17:31 35.21950 -82.95296 27930 ft 245 kts 240°
2026-05-09 17:31 35.20831 -82.96877 27933 ft 246 kts 240°
2026-05-09 17:32 35.16348 -83.03216 27932 ft 247 kts 239°
2026-05-09 17:32 35.15227 -83.04800 27931 ft 246 kts 239°
2026-05-09 17:32 35.14102 -83.06382 27938 ft 247 kts 240°
2026-05-09 17:33 35.12982 -83.07970 27935 ft 247 kts 240°
2026-05-09 17:33 35.11860 -83.09552 27934 ft 246 kts 240°
2026-05-09 17:33 35.10737 -83.11135 27933 ft 246 kts 240°
2026-05-09 17:33 35.09633 -83.12691 27934 ft 246 kts 240°
2026-05-09 17:34 35.08513 -83.14271 27938 ft 246 kts 240°
2026-05-09 17:35 35.02621 -83.22556 27943 ft 242 kts 239°
2026-05-09 17:35 35.01518 -83.24105 27944 ft 242 kts 239°
2026-05-09 17:36 35.00408 -83.25665 27941 ft 243 kts 239°
2026-05-09 17:36 34.99304 -83.27212 27947 ft 242 kts 239°
2026-05-09 17:36 34.98200 -83.28763 27945 ft 242 kts 240°
2026-05-09 17:36 34.97097 -83.30311 27941 ft 241 kts 240°
2026-05-09 17:37 34.95995 -83.31854 27954 ft 242 kts 239°
2026-05-09 17:37 34.94886 -83.33409 27952 ft 243 kts 239°
2026-05-09 17:37 34.93778 -83.34959 27949 ft 243 kts 239°
2026-05-09 17:37 34.92665 -83.36517 27957 ft 243 kts 239°
2026-05-09 17:38 34.91554 -83.38071 27959 ft 243 kts 239°
2026-05-09 17:38 34.90441 -83.39629 27947 ft 243 kts 239°
2026-05-09 17:38 34.89339 -83.41165 27959 ft 240 kts 239°
2026-05-09 17:39 34.87154 -83.44221 27952 ft 239 kts 240°
2026-05-09 17:39 34.86078 -83.45723 27961 ft 240 kts 239°
2026-05-09 17:39 34.85067 -83.47349 27960 ft 230 kts 251°
2026-05-09 17:39 34.84691 -83.49164 27962 ft 224 kts 268°
2026-05-09 17:40 34.84920 -83.51030 27963 ft 226 kts 285°
2026-05-09 17:40 34.85770 -83.52692 27955 ft 241 kts 303°
2026-05-09 17:40 34.87234 -83.53856 27950 ft 268 kts 325°
2026-05-09 17:40 34.89193 -83.54096 27941 ft 307 kts 352°
2026-05-09 17:41 34.91307 -83.53121 27943 ft 345 kts 19°
2026-05-09 17:41 34.93076 -83.51010 27944 ft 374 kts 46°
2026-05-09 17:41 34.94132 -83.48044 27944 ft 390 kts 73°
2026-05-09 17:41 34.94227 -83.44721 27935 ft 392 kts 101°
2026-05-09 17:42 34.93449 -83.41569 27949 ft 386 kts 117°
2026-05-09 17:42 34.92476 -83.38517 27950 ft 390 kts 109°
2026-05-09 17:42 34.92291 -83.35215 27957 ft 393 kts 80°
2026-05-09 17:42 34.93119 -83.32122 27957 ft 380 kts 52°
2026-05-09 17:43 34.94769 -83.29765 27954 ft 352 kts 24°
2026-05-09 17:43 34.96774 -83.28178 27955 ft 343 kts 18°
2026-05-09 17:43 34.98653 -83.26324 27943 ft 364 kts 35°
2026-05-09 17:43 35.00417 -83.24062 27948 ft 363 kts 34°
2026-05-09 17:44 35.02338 -83.22316 27946 ft 332 kts
2026-05-09 17:44 35.04450 -83.21786 27949 ft 292 kts 341°
2026-05-09 17:44 35.06360 -83.22187 27972 ft 276 kts 331°
2026-05-09 17:44 35.08146 -83.22929 27953 ft 265 kts 322°
2026-05-09 17:45 35.09738 -83.24004 27861 ft 259 kts 314°
2026-05-09 17:45 35.11121 -83.25389 27663 ft 256 kts 305°
2026-05-09 17:45 35.12253 -83.27033 27625 ft 249 kts 297°
2026-05-09 17:45 35.13093 -83.28850 27633 ft 243 kts 289°
2026-05-09 17:46 35.13486 -83.30121 27633 ft 240 kts 283°
2026-05-09 17:46 35.13831 -83.32104 27643 ft 238 kts 275°
2026-05-09 17:46 35.13873 -83.34117 27648 ft 238 kts 268°
2026-05-09 17:46 35.13611 -83.36123 27651 ft 240 kts 260°
2026-05-09 17:47 35.13045 -83.38045 27656 ft 244 kts 252°
2026-05-09 17:47 35.12166 -83.39853 27660 ft 250 kts 243°
2026-05-09 17:47 35.10989 -83.41454 27664 ft 258 kts 233°
2026-05-09 17:47 35.09562 -83.42808 27667 ft 263 kts 228°
2026-05-09 17:48 35.08057 -83.44174 27260 ft 274 kts 229°
2026-05-09 17:48 35.06584 -83.45551 26749 ft 284 kts 229°
2026-05-09 17:48 35.05530 -83.46522 26423 ft 286 kts 228°
2026-05-09 17:48 35.03923 -83.47982 25941 ft 289 kts 227°
2026-05-09 17:49 35.02298 -83.49439 25466 ft 291 kts 227°
2026-05-09 17:49 35.00668 -83.50915 24999 ft 293 kts 227°
2026-05-09 17:49 34.99029 -83.52411 24537 ft 296 kts 227°
2026-05-09 17:49 34.97373 -83.53926 24088 ft 299 kts 227°
2026-05-09 17:50 34.95716 -83.55433 23647 ft 303 kts 226°
2026-05-09 17:50 34.92312 -83.58521 22618 ft 308 kts 226°
2026-05-09 17:50 34.90590 -83.60083 22103 ft 309 kts 225°
2026-05-09 17:51 34.89291 -83.61260 21720 ft 311 kts 225°
2026-05-09 17:55 34.89123 -83.61413 22017 ft 311 kts 223°
2026-05-09 17:55 34.87392 -83.63026 21176 ft 313 kts 226°
2026-05-09 17:56 34.85650 -83.64628 20686 ft 315 kts 224°
2026-05-09 17:56 34.83863 -83.66192 20203 ft 318 kts 223°
2026-05-09 17:56 34.82073 -83.67775 19703 ft 318 kts 224°
2026-05-09 17:57 34.78511 -83.71018 18782 ft 322 kts 224°
2026-05-09 17:57 34.76709 -83.72655 18330 ft 324 kts 223°
2026-05-09 17:57 34.74907 -83.74265 17827 ft 325 kts 223°
2026-05-09 17:57 34.73073 -83.75922 17301 ft 325 kts 223°
2026-05-09 17:58 34.71311 -83.77514 16809 ft 324 kts 222°
2026-05-09 17:58 34.69467 -83.79171 16300 ft 324 kts 222°
2026-05-09 17:58 34.67672 -83.80791 15810 ft 322 kts 222°
2026-05-09 17:58 34.65869 -83.82409 15318 ft 318 kts 221°
2026-05-09 17:59 34.64143 -83.83951 14858 ft 314 kts 222°
2026-05-09 17:59 34.62361 -83.85585 14374 ft 312 kts 221°
2026-05-09 17:59 34.60621 -83.87145 13906 ft 309 kts 221°
2026-05-09 17:59 34.58921 -83.88657 13409 ft 306 kts 221°
2026-05-09 18:00 34.57207 -83.90196 13036 ft 302 kts 219°
2026-05-09 18:00 34.55512 -83.91725 12357 ft 301 kts 221°
2026-05-09 18:00 34.53832 -83.93228 11857 ft 299 kts 220°
2026-05-09 18:00 34.52180 -83.94707 11369 ft 296 kts 221°
2026-05-09 18:01 34.50523 -83.96206 10879 ft 293 kts 221°
2026-05-09 18:01 34.48881 -83.97662 10405 ft 292 kts 220°
2026-05-09 18:01 34.47171 -83.98940 9937 ft 294 kts 210°
2026-05-09 18:01 34.45332 -83.99915 9441 ft 290 kts 210°
2026-05-09 18:02 34.43510 -84.01004 9039 ft 286 kts 211°
2026-05-09 18:02 34.41725 -84.02032 8711 ft 282 kts 209°
2026-05-09 18:02 34.39904 -84.03027 8373 ft 271 kts 210°
2026-05-09 18:02 34.38298 -84.03922 8060 ft 264 kts 210°
2026-05-09 18:03 34.36658 -84.04810 7983 ft 251 kts 209°
2026-05-09 18:03 34.35074 -84.05674 7705 ft 248 kts 211°
2026-05-09 18:03 34.33538 -84.06567 7447 ft 241 kts 211°
2026-05-09 18:03 34.32026 -84.07413 7190 ft 237 kts 210°
2026-05-09 18:04 34.30546 -84.08227 6953 ft 234 kts 210°
2026-05-09 18:04 34.29062 -84.09062 6714 ft 233 kts 210°
2026-05-09 18:04 34.27619 -84.09870 6501 ft 231 kts 210°
2026-05-09 18:04 34.26140 -84.10692 6277 ft 230 kts 210°
2026-05-09 18:05 34.24695 -84.11500 6048 ft 226 kts 210°
2026-05-09 18:05 34.23307 -84.12276 5819 ft 216 kts 210°
2026-05-09 18:05 34.21962 -84.13013 5588 ft 208 kts 210°
2026-05-09 18:05 34.20696 -84.13718 5363 ft 201 kts 209°
2026-05-09 18:06 34.19430 -84.14423 5126 ft 198 kts 209°
2026-05-09 18:06 34.18193 -84.15112 4903 ft 195 kts 208°
2026-05-09 18:06 34.16966 -84.15796 4681 ft 192 kts 208°
2026-05-09 18:06 34.15765 -84.16483 4453 ft 190 kts 208°
2026-05-09 18:07 34.14574 -84.17157 4220 ft 189 kts 209°
2026-05-09 18:07 34.13408 -84.17820 4013 ft 189 kts 208°
2026-05-09 18:07 34.12202 -84.18522 3785 ft 188 kts 210°
2026-05-09 18:07 34.11037 -84.19221 3573 ft 186 kts 212°
2026-05-09 18:08 34.09947 -84.19960 3641 ft 172 kts 214°
2026-05-09 18:08 34.08824 -84.20536 3531 ft 178 kts 201°
2026-05-09 18:08 34.07635 -84.21002 3304 ft 183 kts 204°
2026-05-09 18:08 34.06434 -84.21511 3164 ft 177 kts 203°
2026-05-09 18:09 34.05298 -84.21890 2920 ft 164 kts 195°
2026-05-09 18:09 34.04261 -84.22253 2771 ft 145 kts 208°
2026-05-09 18:09 34.03430 -84.22672 2763 ft 137 kts 209°
2026-05-09 18:09 34.02544 -84.23157 2828 ft 142 kts 207°
2026-05-09 18:10 34.01618 -84.23613 2881 ft 148 kts 204°
2026-05-09 18:10 34.01300 -84.23753 2909 ft 149 kts 203°
2026-05-09 18:10 33.99660 -84.24457 2947 ft 152 kts 208°
2026-05-09 18:10 33.98725 -84.25029 2944 ft 152 kts 210°
2026-05-09 18:11 33.97709 -84.25452 2897 ft 153 kts 200°
2026-05-09 18:11 33.96746 -84.25902 2787 ft 149 kts 207°
2026-05-09 18:11 33.95807 -84.26332 2722 ft 148 kts 199°
2026-05-09 18:11 33.94820 -84.26633 2521 ft 145 kts 198°
2026-05-09 18:12 33.93932 -84.27073 2259 ft 123 kts 212°
2026-05-09 18:12 33.93266 -84.27462 2067 ft 99 kts 206°
2026-05-09 18:12 33.92625 -84.27740 1953 ft 97 kts 205°
2026-05-09 18:12 33.91995 -84.28039 1911 ft 99 kts 207°
2026-05-09 18:13 33.91331 -84.28366 1779 ft 105 kts 202°
2026-05-09 18:13 33.90658 -84.28695 1685 ft 109 kts 201°
2026-05-09 18:13 33.89923 -84.29009 1569 ft 112 kts 203°
2026-05-09 18:13 33.89193 -84.29344 1290 ft 111 kts 205°
2026-05-09 18:14 33.88494 -84.29667 1052 ft 104 kts 204°
2026-05-09 18:14 33.87904 -84.29933 995 ft 78 kts 205°
2026-05-09 18:14 33.87552 -84.30090 993 ft 16 kts 200°
2026-05-09 18:14 33.87570 -84.30129 993 ft 8 kts 337°
2026-05-09 18:15 33.87615 -84.30151 994 ft 2 kts 334°
2026-05-09 18:15 33.87667 -84.30181 992 ft 14 kts 334°
2026-05-09 18:15 33.87785 -84.30239 994 ft 22 kts 337°
2026-05-09 18:15 33.87938 -84.30313 992 ft 22 kts 336°
2026-05-09 18:16 33.88029 -84.30320 993 ft 10 kts 340°
2026-05-09 18:16 33.88084 -84.30319 993 ft 8 kts 52°
2026-05-09 18:16 33.88094 -84.30272 995 ft 0 kts 87°